Regional Weather Roundup
Issued by NWS

Home | Current Version | Previous Version | Text Only | Print | Product List | Glossary Off
Versions: 1 2 3 4 5 6 7 8 9 10 11 12 13 14 15 16 17 18 19 20 21 22 23 24 25 26 27 28 29 30 31 32 33 34 35 36 37 38 39 40 41 42 43 44 45 46 47 48 49 50

000
ASUS43 KFSD 251802
RWRSD

WEATHER ROUNDUP FOR SOUTH DAKOTA
NATIONAL WEATHER SERVICE SIOUX FALLS SD
1200 PM CST SUN FEB 25 2018

NOTE: "FAIR" INDICATES FEW OR NO CLOUDS BELOW 12,000 FEET WITH NO
SIGNIFICANT WEATHER AND/OR OBSTRUCTIONS TO VISIBILITY.


SDZ001>005-009-010-012>017-251900-
NORTHWEST AND NORTH CENTRAL SOUTH DAKOTA

CITY           SKY/WX    TMP DP  RH WIND       PRES   REMARKS
BUFFALO          N/A     23  13  65 W9        29.65R WCI  13
FAITH            N/A     25  18  74 SW13      29.75S WCI  14
MOBRIDGE       SUNNY     27  15  61 W9        29.74R WCI  18
$$

SDZ012>016-024>037-041>051-057-063-072>074-251900-
SOUTHWEST AND SOUTH CENTRAL SOUTH DAKOTA

CITY           SKY/WX    TMP DP  RH WIND       PRES   REMARKS
RAPID CTY ARPT SUNNY     26  16  65 VRB6      29.78S WCI  19
PIERRE         SUNNY     25  14  63 W14       29.83R WCI  13
CUSTER         SUNNY     25   6  44 W13G22    29.72R WCI  14
ELLSWORTH AFB  SUNNY     33  16  50 NW13      29.76S WCI  23
PHILIP         SUNNY     26  16  65 W14       29.83S WCI  14
PINE RIDGE     SUNNY    N/A N/A N/A MISG      29.86R
SPEARFISH        N/A     30  10  43 W15G21    29.74S WCI  19
WINNER         FAIR      28  16  60 SW13      29.88R WCI  17
$$

SDZ004>011-016>023-039-040-251900-
NORTHEAST SOUTH DAKOTA

CITY           SKY/WX    TMP DP  RH WIND       PRES   REMARKS
ABERDEEN       SUNNY     26  17  68 W15       29.77R WCI  14
WATERTOWN      SUNNY     23  17  78 W17       29.74R WCI   9
BROOKINGS      FLURRIES  24  17  74 W12       29.81R WCI  13
SISSETON         N/A     26  19  74 W20G30    29.70R WCI  12
$$

SDZ017-020-022-023-036>040-048>070-251900-
SOUTHEAST SOUTH DAKOTA

CITY           SKY/WX    TMP DP  RH WIND       PRES   REMARKS
SIOUX FALLS    MOSUNNY   26  17  68 W9        29.86S WCI  17
HURON          SUNNY     30  21  69 W9        29.83R WCI  22
CHAMBERLAIN    MOSUNNY   30  19  63 SW12      29.87R WCI  20
MITCHELL       SUNNY     27  17  66 SW10      29.88R WCI  17
YANKTON        SUNNY     33  17  51 W17       29.92R WCI  22
$$

ABBREVIATIONS USED IN REMARKS
   TC - TEMPERATURE IN CELSIUS
  WCI - WIND CHILL INDEX
   HX - HEAT INDEX
  VSB - VISIBILITY




USA.gov is the U.S. government's official web portal to all federal, state and local government web resources and services.